Location: Taupo
(38.6830°S, 176.0830°E)
Time: 23:35:10
(UTC+13:00)

Cosmos 1242 Rocket - Pass Details

Date: 24 January 2019
Orbit: 449 x 490 km, 81.2° (Epoch: 20 February)

Event Time Altitude Azimuth Distance (km) Brightness Sun altitude
Rises 22:54:12 0° 200° (SSW) 2,604 7.5 -21.8°
Reaches altitude 10° 22:56:29 10° 211° (SSW) 1,714 6.5 -22.1°
Maximum altitude 22:59:49 30° 273° (W) 911 4.2 -22.5°
Enters shadow 23:00:49 26° 303° (WNW) 1,007 4.1 -22.6°
